Lid_Strength_Index
10 12 13 11 10 9 9 10 10 9 7 8 8 8 7 6 6 5 5 6 5 5 4 5 4 1 2 1 1 1 1 1 1 1 2 1 2 1 0 -0 -0 -1 -1 -1
12 12 9 8 8 9 9 10 10 8 7 8 8 8 6 6 6 6 5 4 4 5 6 4 4 3 2 2 2 1 1 1 1 1 1 1 1 1 0 -0 -0 -1 -1 -1
10 9 7 8 9 9 9 10 10 9 8 7 8 9 8 7 6 6 5 4 4 4 4 5 4 3 2 2 2 2 2 1 1 1 1 1 0 1 1 1 0 -0 -1 -1
10 7 8 8 9 8 11 7 8 9 10 12 9 12 9 7 7 6 5 5 4 4 5 4 4 3 2 2 1 1 1 1 1 1 1 2 2 3 2 1 0 0 -0 -0
9 9 9 9 8 7 9 7 8 8 9 10 10 11 9 8 8 7 6 5 4 4 4 4 4 3 3 1 1 1 1 1 1 1 1 1 2 1 1 1 1 1 -0 -1
8 6 7 7 7 7 7 8 10 10 10 13 10 11 11 9 8 7 6 5 5 4 3 3 3 3 2 1 1 1 1 1 1 1 1 1 1 2 2 3 2 1 0 0
9 8 7 6 8 7 9 10 13 14 13 14 11 12 10 8 7 7 6 5 5 4 4 3 3 3 2 2 2 2 2 2 1 1 1 1 2 2 2 2 1 1 1 1
12 13 9 7 8 9 9 9 12 16 15 13 11 12 9 7 6 6 5 5 5 4 4 4 3 3 2 2 2 2 2 2 1 2 2 2 2 1 1 0 1 1 1 0
12 12 7 7 7 7 10 11 9 12 12 13 11 10 8 7 7 6 6 5 5 5 4 4 3 3 3 2 2 2 3 4 3 2 1 1 0 0 1 0 0 0 -0 0
9 13 9 8 7 7 8 8 12 11 16 17 14 13 11 10 9 7 7 6 6 5 5 4 3 3 2 2 2 3 3 3 2 1 1 1 0 0 0 0 0 0 -0 -0
9 11 11 9 10 11 10 11 11 11 12 16 16 13 8 9 8 7 7 6 6 5 5 4 4 4 3 2 2 2 1 1 1 1 1 1 1 0 0 0 0 0 -0 -0
9 11 14 12 9 8 9 11 11 15 16 14 15 14 8 8 7 6 6 6 5 4 4 3 3 3 2 2 2 2 1 1 1 1 1 1 1 0 1 0 0 -0 0 -0
9 13 17 14 11 9 11 11 11 11 12 15 17 14 8 8 7 6 6 6 5 4 4 3 3 3 3 2 2 2 2 2 1 1 0 0 1 1 1 0 0 -0 0 0
8 11 13 16 13 11 13 11 10 11 15 14 14 12 10 8 8 7 6 5 5 4 4 4 3 4 4 4 3 3 3 3 3 2 2 2 1 1 1 1 1 1 1 1
9 13 12 12 11 11 12 12 11 12 11 14 12 11 9 7 7 6 5 6 5 5 4 4 4 5 5 4 4 5 5 5 4 4 4 4 3 3 3 3 2 2 2 2
9 13 12 13 11 11 12 11 10 10 11 11 11 11 7 6 6 6 6 5 5 5 5 5 5 5 6 6 6 5 5 5 5 5 5 5 4 4 4 4 4 3 3 2
10 11 12 14 12 12 13 11 10 10 9 9 12 9 7 8 7 6 6 6 5 6 6 6 5 5 5 5 6 6 6 6 6 6 6 6 6 6 5 5 4 4 4 3
10 11 11 14 13 19 11 8 9 10 10 9 9 9 8 8 7 7 6 6 6 6 6 6 5 5 5 5 5 5 6 6 7 7 7 6 6 6 5 5 5 5 5 4
8 10 14 16 16 12 11 11 11 11 11 9 9 8 7 6 6 6 6 6 7 7 6 6 6 6 5 6 6 6 6 6 7 7 7 6 7 7 6 6 6 6 7 7
9 9 12 14 18 18 12 9 7 8 14 8 7 8 8 7 10 8 7 7 7 6 7 6 6 6 6 6 6 7 7 7 7 7 7 7 7 7 8 8 8 8 7 7
13 13 15 15 16 13 9 8 7 15 13 7 7 7 8 10 9 8 6 6 7 7 7 7 6 7 7 7 7 8 8 8 8 8 8 8 8 8 8 8 8 8 8 7
14 15 15 15 17 17 7 8 12 9 6 6 6 6 7 7 7 6 6 7 7 7 7 7 7 7 7 7 8 9 9 8 8 9 9 9 9 8 8 9 9 9 11 12
14 11 13 12 12 8 6 7 6 6 7 6 6 6 7 7 8 7 8 7 7 7 7 7 8 8 8 8 9 10 9 9 9 9 9 9 9 11 11 13 13 13 12 12
9 8 11 11 9 8 7 6 5 5 5 5 6 7 7 8 8 8 8 8 8 8 9 8 9 10 10 9 9 9 9 9 10 10 11 11 13 14 12 12 13 13 12 12
8 7 9 9 8 7 6 6 6 5 6 7 7 8 8 8 8 8 8 8 9 9 9 9 10 10 10 9 10 10 10 11 13 15 14 14 13 13 14 13 12 12 11 11
7 8 10 11 8 8 7 8 7 8 8 8 8 8 7 7 8 8 9 9 9 10 10 10 10 11 11 12 12 12 14 15 15 15 14 14 14 14 14 13 12 11 11 10